Location: *
(33.3200°N, 8.3381°W)
Time: 12:40:44
(UTC+00:00)

ATLAS 5 CENTAUR R/B - Pass Details

Date: 09 April 2020
Orbit: 543 x 1116 km, 63.4° (Epoch: 01 May)

Event Time Altitude Azimuth Distance (km) Brightness Sun altitude
Rises 19:54:00 0° 222° (SW) 2,689 5.2 -11.8°
Reaches altitude 10° 19:56:11 10° 228° (SW) 1,812 4.4 -12.2°
Maximum altitude 20:00:04 48° 304° (NW) 751 2.5 -13.0°
Drops below altitude 10° 20:04:18 10° 19° (NNE) 1,970 4.1 -13.8°
Sets 20:06:46 0° 25° (NNE) 2,955 5.0 -14.3°
